FLOCK 2'-4

Last updated on Tue Aug 02 2016 17:39:13 GMT+0000 (Coordinated Universal Time)

1 41611U 16040N 16215.22389043 .00001070 00000-0 53172-4 0 9990 2 41611 97.5052 274.1619 0013728 115.8051 244.4602 15.19777522 6188
UTC large
Height (km)
Speed (km/s)
/
Latitude / Longitude
Inclination (degrees)
Orbital Period (minutes)
Azimuth
Elevation
Range (km)
Doppler Factor

Next 0 passes for location: London (51.5072 / 0.1276)

Sorry there are no passes over London.